This demonstration page uses our WeatherBlox Daily Observations layout. Learn more.

Left ArrowRight Arrow

40.92945, -100.16068

Hourly Observations for April 4, 2015

Temp ( °F °C ) Dew Point ( °F °C ) Humidity (%) Winds ( mph kmh ) Pressure ( in mb ) Visibility ( mi km ) Precip ( " mm )
12:15 am 00:15 Clear 36 2 25 -3.9 65 65 N N/A 30.36 1028 10 16 N/A
12:35 am 00:35 Clear 37 2.8 25 -3.8 62 62 SSW 3 6 30.33 1027 10 16 N/A
12:55 am 00:55 Clear 38 3.1 26 -3.4 63 63 SW 9 15 30.33 1027 10 16 N/A
1:15 am 01:15 Clear 40 4.5 27 -3 59 59 SW 12 19 30.33 1027 10 16 N/A
1:35 am 01:35 Clear 40 4.7 27 -2.8 59 59 SW 12 19 30.33 1027 10 16 N/A
1:55 am 01:55 Clear 39 4 27 -2.7 62 62 SW 12 19 30.33 1027 10 16 N/A
2:15 am 02:15 Clear 39 4 27 -2.8 62 62 SW 12 19 30.33 1027 10 16 N/A
2:35 am 02:35 Clear 39 4 27 -2.8 62 62 SW 12 19 30.33 1027 10 16 N/A
2:55 am 02:55 Clear 39 4 27 -2.6 62 62 WSW 12 19 30.33 1027 10 16 N/A
3:15 am 03:15 Clear 38 3.5 27 -2.6 65 65 SW 13 20 30.33 1027 10 16 N/A
3:35 am 03:35 Clear 38 3.5 28 -2.5 65 65 WSW 13 20 30.33 1027 10 16 N/A
3:55 am 03:55 Clear 39 3.7 28 -2.4 65 65 WSW 12 19 30.33 1027 10 16 N/A
4:15 am 04:15 Clear 38 3.2 28 -2.4 67 67 WSW 10 17 30.33 1027 10 16 N/A
4:35 am 04:35 Clear 38 3.1 28 -2.2 69 69 WSW 9 15 30.33 1027 10 16 N/A
4:55 am 04:55 Clear 36 2.2 28 -2.1 74 74 WSW 9 15 30.36 1028 10 16 N/A
5:15 am 05:15 Clear 36 2.4 28 -2.2 72 72 W 6 9 30.36 1028 10 16 N/A
5:35 am 05:35 Clear 34 1.2 28 -2.5 77 77 WNW 3 6 30.33 1027 10 16 N/A
5:55 am 05:55 Clear 35 1.4 28 -2.5 76 76 WNW 6 9 30.33 1027 10 16 N/A
6:15 am 06:15 Clear 34 0.9 27 -2.9 76 76 WNW 6 9 30.33 1027 10 16 N/A
6:35 am 06:35 Clear 32 -0.2 26 -3.5 79 79 WNW 5 7 30.33 1027 10 16 N/A
6:55 am 06:55 Clear 30 -1 25 -3.9 81 81 NW 6 9 30.36 1028 10 16 N/A
7:15 am 07:15 Clear 31 -0.3 26 -3.3 80 80 WNW 6 9 30.33 1027 10 16 N/A
7:35 am 07:35 Sunny 31 -0.3 25 -3.7 78 78 W 6 9 30.33 1027 10 16 N/A
7:55 am 07:55 Sunny 30 -1 25 -3.9 81 81 N N/A 30.36 1028 10 16 N/A
8:15 am 08:15 Sunny 32 0.1 28 -2.5 83 83 W 5 7 30.33 1027 10 16 N/A
8:35 am 08:35 Sunny 40 4.5 29 -1.6 65 65 SW 5 7 30.30 1026 10 16 N/A
8:55 am 08:55 Sunny 41 5 29 -1.5 63 63 WSW 5 7 30.30 1026 10 16 N/A
9:15 am 09:15 Sunny 43 6.1 30 -1.2 60 60 SW 7 11 30.27 1025 10 16 N/A
9:35 am 09:35 Sunny 45 7.4 29 -1.8 52 52 SW 14 22 30.27 1025 10 16 N/A
9:55 am 09:55 Sunny 48 8.9 28 -2 47 47 WSW 13 20 30.24 1024 10 16 N/A
10:15 am 10:15 Sunny 49 9.7 28 -2.1 44 44 SW 16 26 30.24 1024 10 16 N/A
10:35 am 10:35 Sunny 51 10.5 28 -2.1 42 42 WSW 17 28 30.24 1024 10 16 N/A
10:55 am 10:55 Sunny 53 11.5 29 -1.5 41 41 SW 16 26 30.21 1023 10 16 N/A
11:15 am 11:15 Sunny 55 12.5 30 -1.2 39 39 SW 21 33 30.18 1022 10 16 N/A
11:35 am 11:35 Sunny 55 13 29 -1.8 36 36 SSW 20 31 30.18 1022 10 16 N/A
11:55 am 11:55 Sunny 56 13.1 29 -1.9 36 36 SW 21 33 30.18 1022 10 16 N/A
12:15 pm 12:15 Sunny 58 14.4 28 -2.2 32 32 SSW 23 37 30.15 1021 10 16 N/A
12:35 pm 12:35 Sunny 60 15.5 27 -2.7 29 29 SSW 28 44 30.12 1020 10 16 N/A
12:55 pm 12:55 Sunny 61 16.3 26 -3.1 26 26 SSW 24 39 30.12 1020 10 16 N/A
1:15 pm 13:15 Sunny 62 16.5 24 -4.5 24 24 SSW 23 37 30.09 1019 10 16 N/A
1:35 pm 13:35 Sunny 63 17 26 -3.6 24 24 SSW 22 35 30.06 1018 10 16 N/A
1:55 pm 13:55 Sunny 64 17.6 25 -3.7 23 23 SSW 26 43 30.03 1017 10 16 N/A
2:15 pm 14:15 Sunny 64 17.5 25 -3.8 23 23 SSW 30 48 30.03 1017 10 16 N/A
2:35 pm 14:35 Sunny 64 17.9 25 -3.7 23 23 SSW 28 44 30.00 1016 10 16 N/A
2:55 pm 14:55 Sunny 65 18.1 25 -3.8 22 22 SW 28 44 29.97 1015 10 16 N/A
3:15 pm 15:15 Sunny 65 18.6 26 -3.6 22 22 SSW 25 41 29.97 1015 10 16 N/A
3:35 pm 15:35 Sunny 66 19 25 -3.9 21 21 SSW 26 43 29.97 1015 10 16 N/A
3:55 pm 15:55 Sunny 67 19.3 24 -4.3 20 20 SW 25 41 29.97 1015 10 16 N/A
4:15 pm 16:15 Sunny 66 18.8 24 -4.4 20 20 SSW 30 48 29.97 1015 10 16 N/A
4:35 pm 16:35 Sunny 66 19.1 24 -4.3 20 20 SSW 26 43 29.94 1014 10 16 N/A
4:55 pm 16:55 Sunny 67 19.5 23 -4.8 19 19 SSW 29 46 29.91 1013 10 16 N/A
5:15 pm 17:15 Partly Cloudy 67 19.5 23 -4.8 19 19 SSW 28 44 29.88 1012 10 16 N/A
5:35 pm 17:35 Mostly Cloudy 67 19.5 25 -4 20 20 SSW 21 33 29.88 1012 10 16 N/A
5:55 pm 17:55 Mostly Cloudy 67 19.5 26 -3.6 21 21 SSW 18 30 29.85 1011 10 16 N/A
6:15 pm 18:15 Mostly Cloudy 67 19.5 26 -3.6 21 21 SSW 18 30 29.85 1011 10 16 N/A
6:35 pm 18:35 Mostly Cloudy 66 19 25 -3.9 21 21 SSW 26 43 29.88 1012 10 16 N/A
6:55 pm 18:55 Mostly Cloudy 66 18.7 25 -3.9 21 21 S 20 31 29.88 1012 10 16 N/A
7:15 pm 19:15 Partly Cloudy 65 18.1 24 -4.2 22 22 S 18 30 29.88 1012 10 16 N/A
7:35 pm 19:35 Partly Cloudy 64 17.6 25 -3.9 23 23 S 15 24 29.88 1012 10 16 N/A
7:55 pm 19:55 Mostly Cloudy 62 16.8 25 -4 24 24 SSW 15 24 29.88 1012 10 16 N/A
8:15 pm 20:15 Mostly Cloudy 61 16 25 -4 25 25 S 14 22 29.85 1011 10 16 N/A
8:35 pm 20:35 Mostly Cloudy 59 14.9 25 -3.7 28 28 SSW 14 22 29.88 1012 10 16 N/A
8:55 pm 20:55 Partly Cloudy 58 14.2 26 -3.5 29 29 S 10 17 29.88 1012 10 16 N/A
9:15 pm 21:15 Clear 56 13.5 26 -3.5 31 31 S 12 19 29.91 1013 10 16 N/A
9:35 pm 21:35 Clear 56 13.2 26 -3.5 31 31 S 13 20 29.91 1013 10 16 N/A
9:55 pm 21:55 Clear 54 12.4 26 -3.6 33 33 S 12 19 29.94 1014 10 16 N/A
10:15 pm 22:15 Clear 52 10.9 26 -3.1 38 38 S 10 17 29.94 1014 10 16 N/A
10:35 pm 22:35 Clear 51 10.6 26 -3.2 38 38 S 10 17 29.94 1014 10 16 N/A
10:55 pm 22:55 Clear 49 9.3 26 -3.3 41 41 S 8 13 29.97 1015 10 16 N/A
11:15 pm 23:15 Clear 49 9.3 25 -3.7 40 40 SSE 9 15 29.97 1015 10 16 N/A
11:35 pm 23:35 Clear 49 9.5 24 -4.7 37 37 S 13 20 29.94 1014 10 16 N/A
11:55 pm 23:55 Clear 49 9.2 23 -5.2 36 36 S 13 20 29.94 1014 10 16 N/A

Powered by AerisWeather